Marchicora — V2OQ7 — position and weather

sailwx.info

Track history (hours):
 
Tides and Currents Weather Stations Pressure Air Temp Water Temp Dewpoint Dewpoint Depression Visibility Wind Speed Wind Dir Waves Ship Positions

Marchicora

Last reported at 2014-Jul-28 07:26 UTC. Time now 2014-Jul-28 08:28 UTC.
Position N 37°47' E 007°12'.

Length 153 m; draft 10 m.

Type: Cargo ship. MMSI: 304653000.

Date/timePositionNaut miles runAvg speedWind from/ knotsBaromVisibWave heightAir tempDewpointWater temp
2014-Jul-28 07:26N 37°47' E 007°12'1512.5
2014-Jul-28 06:14N 37°45' E 006°53'5611.8
2014-Jul-28 01:28N 37°37' E 005°43'2311.8
2014-Jul-27 23:31N 37°35' E 005°14'1813.1
2014-Jul-27 22:10N 37°32' E 004°52'8 9.7
2014-Jul-27 21:20N 37°31' E 004°42'911.4
2014-Jul-27 20:33N 37°30' E 004°31'2711.3
2014-Jul-27 18:10N 37°25' E 003°58'711.5
2014-Jul-27 17:33N 37°24' E 003°49'4212.3
2014-Jul-27 14:09N 37°15' E 002°57'20012.6
2014-Jul-26 22:16N 36°33' W 001°08'20512.8
2014-Jul-26 06:13N 35°60' W 005°19'1014.5
2014-Jul-26 05:33N 35°57' W 005°30'7913.1
2014-Jul-25 23:32N 36°06' W 007°07'3112.7
2014-Jul-25 21:05N 36°14' W 007°44'713.0
2014-Jul-25 20:33N 36°16' W 007°52'4412.8
2014-Jul-25 17:06N 36°27' W 008°45'712.9
2014-Jul-25 16:31N 36°29' W 008°54'1313.1
2014-Jul-25 15:29N 36°32' W 009°11'4812.1
2014-Jul-25 11:31N 37°14' W 009°40'1513.3
2014-Jul-25 10:22N 37°29' W 009°45'2713.0
2014-Jul-25 08:16N 37°56' W 009°52'1012.8
2014-Jul-25 07:28N 38°06' W 009°55'6312.7
2014-Jul-25 02:31N 39°08' W 010°06'44512.3
2014-Jul-23 14:20N 46°21' W 007°47'1012.7
2014-Jul-23 13:33N 46°30' W 007°41'19612.2
2014-Jul-22 21:33N 49°12' W 004°58'1312.9
2014-Jul-22 20:32N 49°19' W 004°40'16013.0
2014-Jul-22 08:09N 50°22' W 000°51'912.8
2014-Jul-22 07:29N 50°24' W 000°38'1112.1
2014-Jul-22 06:33N 50°27' W 000°21'1211.5
2014-Jul-22 05:33N 50°31' W 000°04'1111.2
2014-Jul-22 04:33N 50°34' E 000°13'1111.4
2014-Jul-22 03:33N 50°37' E 000°30'1212.3
2014-Jul-22 02:33N 50°43' E 000°47'1313.4
2014-Jul-22 01:33N 50°51' E 001°04'1313.5
2014-Jul-22 00:33N 50°60' E 001°20'1312.8
2014-Jul-21 23:34N 51°08' E 001°36'1211.6
2014-Jul-21 22:33N 51°17' E 001°48'1111.4
2014-Jul-21 21:34N 51°27' E 001°57'1211.5
2014-Jul-21 20:33N 51°35' E 002°09'311.4
2014-Jul-21 20:18N 51°38' E 002°12'911.7
2014-Jul-21 19:33N 51°44' E 002°21'1412.4
2014-Jul-21 18:27N 51°55' E 002°36'40212.2
2014-Jul-20 09:29N 57°34' E 008°49'1212.7
2014-Jul-20 08:33N 57°40' E 009°08'1212.2
2014-Jul-20 07:33N 57°47' E 009°27'1212.0
2014-Jul-20 06:31N 57°51' E 009°49'1212.4
2014-Jul-20 05:33N 57°51' E 010°11'1312.8
2014-Jul-20 04:33N 57°51' E 010°35'1312.7
2014-Jul-20 03:33N 57°44' E 010°55'1313.0
2014-Jul-20 02:33N 57°35' E 011°13'1211.9
2014-Jul-20 01:33N 57°27' E 011°28'1312.3
2014-Jul-20 00:32N 57°15' E 011°36'1311.7
2014-Jul-19 23:25N 57°02' E 011°44'1212.0
2014-Jul-19 22:25N 56°51' E 011°51'1010.7
2014-Jul-19 21:31N 56°41' E 011°50'1111.7
2014-Jul-19 20:33N 56°31' E 011°41'1211.9
2014-Jul-19 19:33N 56°21' E 011°29'1212.2
2014-Jul-19 18:33N 56°11' E 011°17'1411.9
2014-Jul-19 17:22N 55°59' E 011°03'4611.0
2014-Jul-19 13:10N 55°13' E 011°06'711.6
2014-Jul-19 12:32N 55°07' E 010°59'1312.0
2014-Jul-19 11:30N 54°55' E 010°52'1213.0
2014-Jul-19 10:33N 54°43' E 010°47'1111.4
2014-Jul-19 09:33N 54°36' E 011°02'1312.6
2014-Jul-19 08:33N 54°33' E 011°23'1212.3
2014-Jul-19 07:33N 54°27' E 011°42'1212.1
2014-Jul-19 06:33N 54°26' E 012°02'1110.5
2014-Jul-19 05:33N 54°34' E 012°15'1111.5
2014-Jul-19 04:33N 54°42' E 012°29'1211.7
2014-Jul-19 03:33N 54°48' E 012°46'1212.5
2014-Jul-19 02:33N 54°52' E 013°07'1312.7
2014-Jul-19 01:33N 54°56' E 013°27'1312.8
2014-Jul-19 00:33N 55°01' E 013°48'1212.5
2014-Jul-18 23:33N 55°06' E 014°08'1312.9
2014-Jul-18 22:33N 55°16' E 014°22'1312.7
2014-Jul-18 21:33N 55°26' E 014°36'1212.4
2014-Jul-18 20:33N 55°32' E 014°55'1312.7
2014-Jul-18 19:33N 55°39' E 015°15'1312.7
2014-Jul-18 18:33N 55°45' E 015°34'1312.7
2014-Jul-18 17:33N 55°52' E 015°53'1312.7
2014-Jul-18 16:33N 55°58' E 016°13'1312.6
2014-Jul-18 15:33N 56°05' E 016°32'1612.5
2014-Jul-18 14:17N 56°14' E 016°56'2212.5
2014-Jul-18 12:31N 56°27' E 017°27'1312.5
2014-Jul-18 11:27N 56°35' E 017°47'1111.8
2014-Jul-18 10:33N 56°42' E 018°02'1212.1
2014-Jul-18 09:33N 56°49' E 018°19'1212.3
2014-Jul-18 08:33N 56°56' E 018°38'1212.5
2014-Jul-18 07:33N 57°03' E 018°57'  
Track history (hours):
 
Tides and Currents Weather Stations Pressure Air Temp Water Temp Dewpoint Dewpoint Depression Visibility Wind Speed Wind Dir Waves Ship Positions

Marchicora

Last reported at 2014-Jul-28 07:26 UTC. Time now 2014-Jul-28 08:28 UTC.
Position N 37°47' E 007°12'.

Length 153 m; draft 10 m.

Type: Cargo ship. MMSI: 304653000.

Date/timePositionNaut miles runAvg speedWind from/ knotsBaromVisibWave heightAir tempDewpointWater temp
2014-Jul-28 07:26N 37°47' E 007°12'1512.5
2014-Jul-28 06:14N 37°45' E 006°53'5611.8
2014-Jul-28 01:28N 37°37' E 005°43'2311.8
2014-Jul-27 23:31N 37°35' E 005°14'1813.1
2014-Jul-27 22:10N 37°32' E 004°52'8 9.7
2014-Jul-27 21:20N 37°31' E 004°42'911.4
2014-Jul-27 20:33N 37°30' E 004°31'2711.3
2014-Jul-27 18:10N 37°25' E 003°58'711.5
2014-Jul-27 17:33N 37°24' E 003°49'4212.3
2014-Jul-27 14:09N 37°15' E 002°57'20012.6
2014-Jul-26 22:16N 36°33' W 001°08'20512.8
2014-Jul-26 06:13N 35°60' W 005°19'1014.5
2014-Jul-26 05:33N 35°57' W 005°30'7913.1
2014-Jul-25 23:32N 36°06' W 007°07'3112.7
2014-Jul-25 21:05N 36°14' W 007°44'713.0
2014-Jul-25 20:33N 36°16' W 007°52'4412.8
2014-Jul-25 17:06N 36°27' W 008°45'712.9
2014-Jul-25 16:31N 36°29' W 008°54'1313.1
2014-Jul-25 15:29N 36°32' W 009°11'4812.1
2014-Jul-25 11:31N 37°14' W 009°40'1513.3
2014-Jul-25 10:22N 37°29' W 009°45'2713.0
2014-Jul-25 08:16N 37°56' W 009°52'1012.8
2014-Jul-25 07:28N 38°06' W 009°55'6312.7
2014-Jul-25 02:31N 39°08' W 010°06'44512.3
2014-Jul-23 14:20N 46°21' W 007°47'1012.7
2014-Jul-23 13:33N 46°30' W 007°41'19612.2
2014-Jul-22 21:33N 49°12' W 004°58'1312.9
2014-Jul-22 20:32N 49°19' W 004°40'16013.0
2014-Jul-22 08:09N 50°22' W 000°51'912.8
2014-Jul-22 07:29N 50°24' W 000°38'1112.1
2014-Jul-22 06:33N 50°27' W 000°21'1211.5
2014-Jul-22 05:33N 50°31' W 000°04'1111.2
2014-Jul-22 04:33N 50°34' E 000°13'1111.4
2014-Jul-22 03:33N 50°37' E 000°30'1212.3
2014-Jul-22 02:33N 50°43' E 000°47'1313.4
2014-Jul-22 01:33N 50°51' E 001°04'1313.5
2014-Jul-22 00:33N 50°60' E 001°20'1312.8
2014-Jul-21 23:34N 51°08' E 001°36'1211.6
2014-Jul-21 22:33N 51°17' E 001°48'1111.4
2014-Jul-21 21:34N 51°27' E 001°57'1211.5
2014-Jul-21 20:33N 51°35' E 002°09'311.4
2014-Jul-21 20:18N 51°38' E 002°12'911.7
2014-Jul-21 19:33N 51°44' E 002°21'1412.4
2014-Jul-21 18:27N 51°55' E 002°36'40212.2
2014-Jul-20 09:29N 57°34' E 008°49'1212.7
2014-Jul-20 08:33N 57°40' E 009°08'1212.2
2014-Jul-20 07:33N 57°47' E 009°27'1212.0
2014-Jul-20 06:31N 57°51' E 009°49'1212.4
2014-Jul-20 05:33N 57°51' E 010°11'1312.8
2014-Jul-20 04:33N 57°51' E 010°35'1312.7
2014-Jul-20 03:33N 57°44' E 010°55'1313.0
2014-Jul-20 02:33N 57°35' E 011°13'1211.9
2014-Jul-20 01:33N 57°27' E 011°28'1312.3
2014-Jul-20 00:32N 57°15' E 011°36'1311.7
2014-Jul-19 23:25N 57°02' E 011°44'1212.0
2014-Jul-19 22:25N 56°51' E 011°51'1010.7
2014-Jul-19 21:31N 56°41' E 011°50'1111.7
2014-Jul-19 20:33N 56°31' E 011°41'1211.9
2014-Jul-19 19:33N 56°21' E 011°29'1212.2
2014-Jul-19 18:33N 56°11' E 011°17'1411.9
2014-Jul-19 17:22N 55°59' E 011°03'4611.0
2014-Jul-19 13:10N 55°13' E 011°06'711.6
2014-Jul-19 12:32N 55°07' E 010°59'1312.0
2014-Jul-19 11:30N 54°55' E 010°52'1213.0
2014-Jul-19 10:33N 54°43' E 010°47'1111.4
2014-Jul-19 09:33N 54°36' E 011°02'1312.6
2014-Jul-19 08:33N 54°33' E 011°23'1212.3
2014-Jul-19 07:33N 54°27' E 011°42'1212.1
2014-Jul-19 06:33N 54°26' E 012°02'1110.5
2014-Jul-19 05:33N 54°34' E 012°15'1111.5
2014-Jul-19 04:33N 54°42' E 012°29'1211.7
2014-Jul-19 03:33N 54°48' E 012°46'1212.5
2014-Jul-19 02:33N 54°52' E 013°07'1312.7
2014-Jul-19 01:33N 54°56' E 013°27'1312.8
2014-Jul-19 00:33N 55°01' E 013°48'1212.5
2014-Jul-18 23:33N 55°06' E 014°08'1312.9
2014-Jul-18 22:33N 55°16' E 014°22'1312.7
2014-Jul-18 21:33N 55°26' E 014°36'1212.4
2014-Jul-18 20:33N 55°32' E 014°55'1312.7
2014-Jul-18 19:33N 55°39' E 015°15'1312.7
2014-Jul-18 18:33N 55°45' E 015°34'1312.7
2014-Jul-18 17:33N 55°52' E 015°53'1312.7
2014-Jul-18 16:33N 55°58' E 016°13'1312.6
2014-Jul-18 15:33N 56°05' E 016°32'1612.5
2014-Jul-18 14:17N 56°14' E 016°56'2212.5
2014-Jul-18 12:31N 56°27' E 017°27'1312.5
2014-Jul-18 11:27N 56°35' E 017°47'1111.8
2014-Jul-18 10:33N 56°42' E 018°02'1212.1
2014-Jul-18 09:33N 56°49' E 018°19'1212.3
2014-Jul-18 08:33N 56°56' E 018°38'1212.5
2014-Jul-18 07:33N 57°03' E 018°57'  

Dump ship's entire track history